Regional Weather Roundup
Issued by NWS

Home | Current Version | Previous Version | Graphics & Text | Print | Product List | Glossary On
Versions: 1 2 3 4 5 6 7 8 9 10 11 12 13 14 15 16 17 18 19 20 21 22 23 24 25 26 27 28 29 30 31 32 33 34 35 36 37 38 39 40 41 42 43 44 45 46 47 48 49 50
000
ASUS43 KOAX 200202
RWRNE

WEATHER ROUNDUP FOR NEBRASKA
NATIONAL WEATHER SERVICE OMAHA NE
800 PM CST FRI DEC 19 2014

NOTES: SATELLITE DATA IS BEING USED TO AUGMENT CLOUD COVER ABOVE
       12000 FEET.
       "FAIR" INDICATES FEW OR NO CLOUDS BELOW 12,000 FEET WITH NO
       SIGNIFICANT WEATHER AND/OR OBSTRUCTIONS TO VISIBILITY.

  * THESE STATIONS DO NOT REPORT WEATHER SUCH AS RAIN...SNOW OR FOG.

NEZ001>004-019>022-054>056-200300-
NEBRASKA PANHANDLE

CITY           SKY/WX    TMP DP  RH WIND       PRES   REMARKS
SCOTTSBLUFF    MOCLDY    28  21  75 NW5       30.00S WCI  23
ALLIANCE       PTCLDY    20  18  92 W8        29.99R WCI  10
CHADRON        PTCLDY    24  18  77 W8        29.97S WCI  15
KIMBALL        PTCLDY    30  20  66 W6        29.99S WCI  24
SIDNEY         PTCLDY    26  19  74 W12       30.02R WCI  16
$$

NEZ057>060-069>072-079>082-200300-
SOUTHWEST NEBRASKA

CITY           SKY/WX    TMP DP  RH WIND       PRES   REMARKS
NORTH PLATTE   CLEAR     26  23  88 NW5       30.01F WCI  20
IMPERIAL       CLEAR     31  26  82 W10       30.03R WCI  22
LEXINGTON      CLEAR     26  24  91 CALM      30.03S FOG
MC COOK        CLEAR     29  24  82 NW7       30.03R WCI  22
OGALLALA       CLEAR     26  23  87 W7        30.02R WCI  19
$$

NEZ005>010-023>029-035>040-094-200300-
NORTH CENTRAL NEBRASKA

CITY           SKY/WX    TMP DP  RH WIND       PRES   REMARKS
VALENTINE      CLEAR     21  18  88 W6        29.98S WCI  13
AINSWORTH      CLEAR     20  19  96 SW5       29.98S FOG     WCI  14
BROKEN BOW     CLEAR     26  24  92 CALM      30.00S FOG
O`NEILL        FOG       27  27 100 S7        30.02S VSB 1/2 WCI  20
THEDFORD       CLEAR     27  25  92 W6        29.99S WCI  20
$$

NEZ041-046>049-061>064-073>077-083>087-200300-
SOUTH CENTRAL NEBRASKA

CITY           SKY/WX    TMP DP  RH WIND       PRES   REMARKS
GRAND ISLAND   CLOUDY    34  32  92 S7        30.07S FOG     WCI  28
AURORA         CLOUDY    33  33  99 S7        30.07F FOG     WCI  27
HASTINGS       FOG       33  32  96 S8        30.05F VSB 3/4 WCI  26
HEBRON         CLOUDY    32  31  93 S7        30.10F FOG     WCI  26
HOLDREGE       CLEAR     32  28  85 S7        30.03S WCI  26
KEARNEY *      CLOUDY    25  23  93 CALM      30.04S VSB 1/2
YORK           CLOUDY    32  32 100 S8        30.10R FOG     WCI  25
$$

NEZ011>018-030>034-042>045-200300-
NORTHEAST NEBRASKA

CITY           SKY/WX    TMP DP  RH WIND       PRES   REMARKS
NORFOLK        CLOUDY    34  30  85 S10       30.06S WCI  26
ALBION         CLOUDY    32  29  88 S6        30.05S WCI  27
BLAIR          CLOUDY    32  30  90 S7        30.13S WCI  26
COLUMBUS *     CLOUDY    34  27  75 S7        30.10F WCI  28
FREMONT        CLOUDY    34  31  86 S7        30.12F WCI  28
TEKAMAH        CLOUDY    33  29  85 S9        30.14S WCI  25
$$

NEZ050>053-065>068-078-088>093-200300-
SOUTHEAST NEBRASKA

CITY           SKY/WX    TMP DP  RH WIND       PRES   REMARKS
LINCOLN        CLOUDY    34  30  85 S8        30.15S WCI  27
OMAHA EPPLEY   DRIZZLE   31  29  92 S9        30.17S FOG     WCI  23
BEATRICE       CLOUDY    32  30  93 S6        30.13F WCI  26
FALLS CITY     CLOUDY    30  27  88 SE6       30.19S WCI  24
NEBRASKA CITY  CLOUDY    31  30  99 S7        30.17S WCI  24
PLATTSMOUTH    CLOUDY    30  28  93 SE7       30.16S FOG     WCI  23
$$

NEZ044-045-051>053-067-200300-
OMAHA AREA

CITY           SKY/WX    TMP DP  RH WIND       PRES   REMARKS
EPPLEY FIELD   DRIZZLE   31  29  92 S9        30.17S FOG     WCI  23
BLAIR          CLOUDY    32  30  90 S7        30.13S WCI  26
FREMONT        CLOUDY    34  31  86 S7        30.12F WCI  28
MILLARD        CLOUDY    32  30  92 SE7       30.15F WCI  26
OFFUTT AFB     CLOUDY    31  29  94 SE8       30.15F WCI  23
PLATTSMOUTH    CLOUDY    30  28  93 SE7       30.16S FOG     WCI  23
WAHOO          CLOUDY    34  29  83 S7        30.13S WCI  28
$$


USA.gov is the U.S. government's official web portal to all federal, state and local government web resources and services.